This is the latest recevied weather packets stored in our database for station/object WD4IXD-WX. If no packets are shown the sender has not sent any weather packets the latest 10 day(s).
| Time | Temp. | Humidity | Pressure | Rain* | Wind** | Luminosity | Snow |
|---|---|---|---|---|---|---|---|
| 1777505104 | 5.56° C | 38% | 1018.7 hPa | 0 mm | - | 67 W/m² | - |
| 1777504804 | 5.56° C | 37% | 1018.6 hPa | 0 mm | - | 69 W/m² | - |
| 1777504504 | 6.11° C | 37% | 1018.6 hPa | 0 mm | - | 76 W/m² | - |
| 1777504204 | 6.67° C | 36% | 1018.6 hPa | 0 mm | - | 74 W/m² | - |
| 1777503903 | 6.67° C | 32% | 1018.6 hPa | 0 mm | - | 77 W/m² | - |
| 1777503604 | 6.67° C | 32% | 1018.4 hPa | 0 mm | - | 111 W/m² | - |
| 1777503304 | 7.22° C | 32% | 1018.2 hPa | 0 mm | - | 134 W/m² | - |
| 1777503003 | 7.22° C | 31% | 1018.3 hPa | 0 mm | - | 137 W/m² | - |
| 1777502704 | 7.22° C | 30% | 1018.2 hPa | 0 mm | - | 167 W/m² | - |
| 1777502404 | 7.22° C | 30% | 1018.2 hPa | 0 mm | - | 188 W/m² | - |
| 1777502104 | 7.22° C | 30% | 1018.2 hPa | 0 mm | - | 190 W/m² | - |
| 1777501804 | 7.22° C | 30% | 1018.2 hPa | 0 mm | - | 700 W/m² | - |
| 1777501503 | 7.22° C | 30% | 1018.2 hPa | 0 mm | - | 301 W/m² | - |
| 1777501204 | 7.22° C | 29% | 1018.2 hPa | 0 mm | - | 211 W/m² | - |
| 1777500905 | 7.22° C | 29% | 1018.3 hPa | 0 mm | - | 204 W/m² | - |
| 1777500604 | 7.22° C | 31% | 1018.3 hPa | 0 mm | - | 241 W/m² | - |
| 1777500304 | 7.22° C | 32% | 1018.4 hPa | 0 mm | - | 352 W/m² | - |
| 1777500004 | 7.22° C | 33% | 1018.5 hPa | 0 mm | - | 315 W/m² | - |
| 1777499704 | 7.22° C | 33% | 1018.5 hPa | 0 mm | - | 420 W/m² | - |
| 1777499404 | 6.67° C | 35% | 1018.4 hPa | 0 mm | - | 809 W/m² | - |
| 1777499104 | 6.67° C | 36% | 1018.6 hPa | 0 mm | - | 812 W/m² | - |
| 1777498804 | 6.11° C | 40% | 1018.6 hPa | 0 mm | - | 816 W/m² | - |
| 1777498504 | 5.56° C | 42% | 1018.7 hPa | 0 mm | - | 877 W/m² | - |
| 1777498204 | 5° C | 42% | 1018.8 hPa | 0 mm | - | 459 W/m² | - |
| 1777497904 | 4.44° C | 43% | 1018.9 hPa | 0 mm | - | 269 W/m² | - |
* Rain latest hour (hover to see other rain measurements)
** Current wind speed in m/s (hover to see current wind gust speed)